Simultaneous Nadir Overpasses (SNOs) Predictions

Prediction of SNOs between AQUA and GOES-15 Satellite Orbit:

Table of predicted SNOs for the next 14.0 days since TLE Epoch: 2/2/2018
Index Date Time (AQUA) AQUA Lat,Lon GOES-15 Lat,Lon Distance(km) Time Diff (sec)
1 02/04/2018 10:20:08 -0.92,-131.17 -0.03,-135.27 466.17 80
2 02/04/2018 22:41:33 -0.19,-136.36 0.03,-135.25 125.87 80
3 02/06/2018 22:29:23 0.45,-133.41 0.02,-135.30 215.66 80
4 02/07/2018 10:50:38 0.67,-138.56 -0.02,-135.34 366.02 80
5 02/09/2018 10:38:28 0.03,-135.61 -0.01,-135.38 25.08 80
6 02/11/2018 10:26:17 -0.56,-132.64 0.01,-135.42 315.55 80
7 02/11/2018 22:47:41 -0.54,-137.83 -0.01,-135.40 277.07 80
8 02/13/2018 22:35:32 0.11,-134.88 -0.01,-135.43 62.41 80
9 02/15/2018 22:23:22 0.77,-131.93 -0.01,-135.46 401.40 80
10 02/16/2018 10:44:36 0.36,-137.08 0.01,-135.49 180.93 80




NCC Satellite Simultaneous Nadir Overpasses (SNOs) Prediction Service
